Zurück zum Katalog

FENGYUN 1C DEB

LostSSO
NORAD 36190·DEBRIS·🇨🇳 China

Gestartet May 10, 1999 von Taiyuan Satellite Launch Center

Loading…

Nächste Überflüge (nächste 24 Stunden)

TLE

VeraltetSource: Space-Track

Epoche: Apr 24, 2023, 03:57 UTC

1 36190U 99025DTP 23114.16459767  .00033240  00000-0  13267-1 0  9992
2 36190  98.7221 192.7631 0049900 161.2788 229.3450 14.27654658510148

Verfolge FENGYUN 1C DEB in Echtzeit mit AllMySat

Download on the App Store